London City, United Kingdom

4:40 PM BST on May 21, 2018 (GMT +0100)
London City

Weather History for EGLC - January, 2014

Change the Weather History Date:

Monday, January 13, 2014

  Actual Average Record
Temperature  
Mean Temperature 48 °F -  
Max Temperature 51 °F 46 °F 57 °F (2011)
Min Temperature 44 °F 39 °F 33 °F (2001)
Degree Days  
Heating Degree Days 18    
Moisture  
Dew Point 40 °F    
Average Humidity 79    
Maximum Humidity 88    
Minimum Humidity 66    
Precipitation  
Precipitation 0.00 in - - ()
Sea Level Pressure  
Sea Level Pressure 29.67 in    
Wind  
Wind Speed 10 mph ()    
Max Wind Speed 17 mph    
Max Gust Speed 29 mph    
Visibility 6.2 miles    
Events Rain    
Averages and records for this station are not official NWS values.
T = Trace of Precipitation, MM = Missing Value Source: Averaged Metar Reports

Daily Weather History Graph

Daily Weather History Graph

Search for Another Location

Airport or City:

Astronomy

Jan. 13, 2014 Rise Set
Actual Time 8:00 AM GMT 4:16 PM GMT
Civil Twilight 7:21 AM GMT 4:55 PM GMT
Nautical Twilight 6:39 AM GMT 5:37 PM GMT
Astronomical Twilight 5:59 AM GMT 6:17 PM GMT
Moon 2:22 PM GMT (1/13) 5:34 AM GMT (1/13)
Length of Visible Light 9h 34m
Length of Day
8h 16m
Waxing Gibbous, 94% of the Moon is Illuminated
Jan 13
Waxing Gibbous
Jan 16
Full
Jan 24
Last Quarter
Jan 30
New
Feb 6
First Quarter

Hourly Weather History & Observations

Time (GMT) Temp. Windchill Dew Point Humidity Pressure Visibility Wind Dir Wind Speed Gust Speed Precip Events Conditions
12:20 AM 51.8 °F - 48.2 °F 88% 29.68 in 6.2 mi SW 15.0 mph 28.8 mph N/A Rain Light Rain Showers
12:50 AM 50.0 °F - 42.8 °F 76% 29.71 in 6.2 mi WSW 17.3 mph - N/A Rain Light Rain Showers
1:20 AM 48.2 °F - 42.8 °F 82% 29.71 in 6.2 mi West 16.1 mph - N/A   Mostly Cloudy
1:50 AM 48.2 °F - 41.0 °F 76% 29.74 in 6.2 mi WSW 11.5 mph - N/A   Mostly Cloudy
2:20 AM 46.4 °F 41.1 °F 42.8 °F 87% 29.74 in 6.2 mi WSW 11.5 mph - N/A   Mostly Cloudy
2:50 AM 46.4 °F 41.1 °F 41.0 °F 81% 29.74 in 6.2 mi WSW 11.5 mph - N/A   Partly Cloudy
3:20 AM 46.4 °F 41.9 °F 41.0 °F 81% 29.74 in 6.2 mi WSW 9.2 mph - N/A   Unknown
3:50 AM 46.4 °F 41.9 °F 41.0 °F 81% 29.74 in 6.2 mi WSW 9.2 mph - N/A   Unknown
4:20 AM 44.6 °F 40.7 °F 41.0 °F 87% 29.74 in 6.2 mi SW 6.9 mph - N/A   Unknown
4:50 AM 44.6 °F 41.4 °F 41.0 °F 87% 29.74 in 6.2 mi SW 5.8 mph - N/A   Unknown
5:20 AM 44.6 °F 40.7 °F 41.0 °F 87% 29.74 in 6.2 mi SW 6.9 mph - N/A   Unknown
5:50 AM 44.6 °F 40.2 °F 41.0 °F 87% 29.77 in - SW 8.1 mph - N/A   Clear
6:20 AM 44.6 °F 40.2 °F 41.0 °F 87% 29.77 in - SW 8.1 mph - N/A   Clear
6:50 AM 44.6 °F 41.4 °F 39.2 °F 81% 29.77 in - SW 5.8 mph - N/A   Clear
7:20 AM 44.6 °F 40.7 °F 39.2 °F 81% 29.77 in - SW 6.9 mph - N/A   Clear
7:50 AM 44.6 °F 41.4 °F 39.2 °F 81% 29.77 in - SW 5.8 mph - N/A   Clear
8:20 AM 44.6 °F 39.7 °F 39.2 °F 81% 29.77 in 6.2 mi SW 9.2 mph - N/A   Partly Cloudy
8:50 AM 44.6 °F 39.7 °F 39.2 °F 81% 29.77 in - SW 9.2 mph - N/A   Clear
9:20 AM 46.4 °F 41.9 °F 39.2 °F 76% 29.77 in - SW 9.2 mph - N/A   Clear
9:50 AM 46.4 °F 42.9 °F 41.0 °F 81% 29.77 in 6.2 mi SSW 6.9 mph - N/A   Partly Cloudy
10:20 AM 48.2 °F - 39.2 °F 71% 29.74 in 6.2 mi SSW 6.9 mph - N/A   Partly Cloudy
10:50 AM 46.4 °F 41.9 °F 39.2 °F 76% 29.74 in 6.2 mi SSW 9.2 mph - N/A   Partly Cloudy
11:20 AM 48.2 °F - 39.2 °F 71% 29.74 in - SSW 10.4 mph - N/A   Clear
11:50 AM 48.2 °F - 39.2 °F 71% 29.71 in 6.2 mi SSW 10.4 mph - N/A   Partly Cloudy
12:20 PM 48.2 °F - 39.2 °F 71% 29.71 in 6.2 mi SSW 11.5 mph - N/A   Scattered Clouds
12:50 PM 50.0 °F - 39.2 °F 66% 29.68 in 6.2 mi South 9.2 mph - N/A   Partly Cloudy
1:20 PM 50.0 °F - 39.2 °F 66% 29.68 in - SSW 11.5 mph - N/A   Clear
1:50 PM 48.2 °F - 39.2 °F 71% 29.65 in 6.2 mi South 10.4 mph - N/A   Partly Cloudy
2:20 PM 48.2 °F - 41.0 °F 76% 29.65 in 6.2 mi South 13.8 mph - N/A   Scattered Clouds
2:50 PM 48.2 °F - 41.0 °F 76% 29.65 in 6.2 mi South 11.5 mph - N/A   Partly Cloudy
3:20 PM 48.2 °F - 41.0 °F 76% 29.62 in 6.2 mi South 10.4 mph - N/A   Scattered Clouds
3:50 PM 48.2 °F - 41.0 °F 76% 29.62 in 6.2 mi South 10.4 mph - N/A   Partly Cloudy
4:20 PM 48.2 °F - 39.2 °F 71% 29.62 in 6.2 mi South 9.2 mph - N/A Rain Light Rain Showers
4:50 PM 46.4 °F 41.5 °F 39.2 °F 76% 29.62 in 6.2 mi South 10.4 mph - N/A   Scattered Clouds
5:20 PM 48.2 °F - 41.0 °F 76% 29.59 in 6.2 mi South 11.5 mph - N/A   Partly Cloudy
5:50 PM 44.6 °F 37.4 °F 39.2 °F 81% 29.59 in 6.2 mi WSW 16.1 mph - N/A Rain Rain Showers
6:20 PM 44.6 °F 39.2 °F 39.2 °F 81% 29.59 in 5.6 mi WSW 10.4 mph - N/A Rain Light Rain Showers
6:50 PM 46.4 °F 43.5 °F 41.0 °F 81% 29.59 in 6.2 mi South 5.8 mph - N/A   Scattered Clouds
7:20 PM 46.4 °F 41.9 °F 41.0 °F 81% 29.59 in 6.2 mi SSW 9.2 mph - N/A   Scattered Clouds
7:50 PM 46.4 °F 41.9 °F 41.0 °F 81% 29.59 in 6.2 mi SW 9.2 mph - N/A Rain Light Rain Showers
8:20 PM 46.4 °F 41.5 °F 41.0 °F 81% 29.56 in 6.2 mi SSW 10.4 mph - N/A   Partly Cloudy
8:50 PM 46.4 °F 41.9 °F 39.2 °F 76% 29.56 in 6.2 mi SSW 9.2 mph - N/A   Partly Cloudy
9:20 PM 46.4 °F 42.4 °F 39.2 °F 76% 29.56 in 6.2 mi SSW 8.1 mph - N/A   Partly Cloudy
9:50 PM 46.4 °F 42.9 °F 39.2 °F 76% 29.56 in 6.2 mi SSW 6.9 mph - N/A   Mostly Cloudy
10:20 PM 44.6 °F 41.4 °F 39.2 °F 81% 29.56 in 6.2 mi SSW 5.8 mph - N/A   Mostly Cloudy
10:50 PM 44.6 °F 41.4 °F 39.2 °F 81% 29.56 in 6.2 mi SSW 5.8 mph - N/A   Unknown
11:20 PM 44.6 °F 40.7 °F 39.2 °F 81% 29.53 in 6.2 mi SSW 6.9 mph - N/A   Unknown
11:50 PM 44.6 °F 41.4 °F 37.4 °F 76% 29.56 in 6.2 mi South 5.8 mph - N/A   Partly Cloudy